カタログに戻る

YAOGAN-30 AC

運用中軍事VLEO
NORAD 48863·PAYLOAD·🇨🇳 China

打ち上げ Jun 18, 2021 から Xichang Satellite Launch Center

Loading…

次のパス (今後24時間)

TLE

最新Source: Space-Track

元期: Sep 14, 2026, 15:10 UTC

1 48863U 21055D   26257.63217759  .00001925  00000-0  14219-3 0  9991
2 48863  34.9967 326.2327 0003597 233.5986 126.4391 15.03026431286359

AllMySatでYAOGAN-30 ACをリアルタイム追跡

Download on the App Store